Location: Vinland
(47.7731°N, 122.6974°W)
Time: 13:29:03
(UTC+00:00)

Vanguard 2 - Visible Passes

Search period start: 18 April 2024 00:00
Search period end: 28 April 2024 00:00
Orbit: 552 x 2917 km, 32.9° (Epoch: 17 April)

Date Brightness Start Highest point End Pass type
(mag) Time Alt. Az. Time Alt. Az. Time Alt. Az.
18 Apr 11.0 08:52:02 24° SE 08:52:50 24° SE 09:05:03 10° E visible
18 Apr 10.7 10:53:08 25° SSW 11:02:24 41° SSE 11:17:23 10° E visible
19 Apr 10.8 09:05:16 28° SSE 09:06:54 28° SE 09:20:26 10° E visible
19 Apr 10.7 11:06:23 23° SW 11:16:48 44° SSE 11:32:06 10° ESE visible
20 Apr 11.5 07:17:22 11° ESE 07:17:22 11° ESE 07:18:46 10° ESE visible
20 Apr 10.7 09:18:28 32° SSE 09:21:03 33° SSE 09:35:30 10° E visible
20 Apr 10.6 11:19:34 21° SW 11:31:13 47° S 11:46:42 10° ESE visible
21 Apr 11.3 07:30:32 16° ESE 07:30:32 16° ESE 07:35:50 10° ESE visible
21 Apr 10.5 09:31:38 34° S 09:35:15 37° SSE 09:50:24 10° E visible
21 Apr 10.6 11:32:44 17° WSW 11:45:39 48° S 12:01:13 10° ESE visible
22 Apr 11.1 07:43:40 21° SE 07:43:40 21° SE 07:51:44 10° E visible
22 Apr 10.4 09:44:46 35° S 09:49:29 41° SSE 10:05:08 10° E visible
22 Apr 10.6 11:45:51 14° WSW 12:00:05 48° S 12:15:38 10° ESE visible
23 Apr 10.8 07:56:46 25° SE 07:56:46 25° SE 08:07:07 10° E visible
23 Apr 10.4 09:57:51 34° SSW 10:03:47 44° SSE 10:19:47 10° ESE visible
23 Apr 10.6 11:58:58 10° WSW 12:14:29 47° S 12:29:57 10° ESE visible
24 Apr 10.6 08:09:52 30° SE 08:09:52 30° SE 08:22:10 10° E visible
24 Apr 10.4 10:10:57 31° SW 10:18:07 46° S 10:34:20 10° ESE visible
24 Apr 10.7 12:13:31 10° WSW 12:28:50 44° SSW 12:44:09 10° SE visible
25 Apr 10.4 08:22:56 35° SSE 08:22:56 35° SSE 08:37:02 10° E visible
25 Apr 10.4 10:24:01 28° SW 10:32:29 47° S 10:48:48 10° ESE visible
25 Apr 10.7 12:28:07 10° W 12:43:09 42° SSW 12:58:11 10° SE visible
26 Apr 11.2 06:34:55 14° ESE 06:34:55 14° ESE 06:37:27 10° E visible
26 Apr 10.2 08:36:00 38° SSE 08:36:47 38° SSE 08:51:44 10° E visible
26 Apr 10.4 10:37:05 23° WSW 10:46:51 47° S 11:03:10 10° ESE visible
27 Apr 11.0 06:47:59 18° ESE 06:47:59 18° ESE 06:52:55 10° E visible
27 Apr 10.1 08:49:04 40° S 08:50:59 41° SSE 09:06:20 10° ESE visible
27 Apr 10.4 10:50:09 19° WSW 11:01:13 46° S 11:17:24 10° ESE visible
